,,Stat6,,Stat2,,Stat8,,Stat9,,Stat10,,Wind1,,Wind1
time,status,PA1M_AVG,status,PR1M_SUM,status,RH1M_AVG,status,SR1M_AVG,status,TA1M_AVG,status,W1dAve1m,status,W1sAve1m
2008-10-09, 00:00:00,VALID,917.039,VALID,0,VALID,100,VALID,-0.118866,VALID,19.9826,VALID,186,VALID,0
2008-10-09, 00:01:00,VALID,917.024,VALID,0,VALID,100,VALID,-0.135847,VALID,19.9377,VALID,155,VALID,0
2008-10-09, 00:02:00,VALID,916.989,VALID,0,VALID,100,VALID,-0.152827,VALID,19.8763,VALID,152,VALID,0
2008-10-09, 00:03:00,VALID,916.992,VALID,0,VALID,100,VALID,-0.152827,VALID,19.7986,VALID,155,VALID,0
2008-10-09, 00:04:00,VALID,916.981,VALID,0,VALID,100,VALID,-0.0849042,VALID,19.7684,VALID,148,VALID,0
2008-10-09, 00:05:00,VALID,916.97,VALID,0,VALID,100,VALID,-0.0509425,VALID,19.8069,VALID,170,VALID,0
2008-10-09, 00:06:00,VALID,916.976,VALID,0,VALID,100,VALID,-0.0849042,VALID,19.8558,VALID,148,VALID,0.694727
2008-10-09, 00:07:00,VALID,916.976,VALID,0,VALID,100,VALID,-0.0339617,VALID,19.9237,VALID,176,VALID,0.929874
2008-10-09, 00:08:00,VALID,916.972,VALID,0,VALID,100,VALID,-0.0169808,VALID,19.9362,VALID,174,VALID,0.0455729
2008-10-09, 00:09:00,VALID,916.965,VALID,0,VALID,100,VALID,-0.0339617,VALID,19.9329,VALID,153,VALID,0
2008-10-09, 00:10:00,VALID,916.957,VALID,0,VALID,100,VALID,-0.0509425,VALID,19.9232,VALID,153,VALID,0.535528
2008-10-09, 00:11:00,VALID,916.974,VALID,0,VALID,100,VALID,-0.0679233,VALID,19.9267,VALID,160,VALID,0.874442
2008-10-09, 00:12:00,VALID,916.975,VALID,0,VALID,100,VALID,-0.0169808,VALID,19.9686,VALID,149,VALID,0.790179
2008-10-09, 00:13:00,VALID,916.977,VALID,0,VALID,100,VALID,-0.0169808,VALID,19.9816,VALID,148,VALID,0.913681
2008-10-09, 00:14:00,VALID,916.976,VALID,0,VALID,100,VALID,-0.0169808,VALID,20.0238,VALID,168,VALID,0.883371
2008-10-09, 00:15:00,VALID,916.956,VALID,0,VALID,100,VALID,0,VALID,20.0757,VALID,136,VALID,0
2008-10-09, 00:16:00,VALID,916.962,VALID,0,VALID,100,VALID,-0.0509425,VALID,20.0527,VALID,129,VALID,0.0336806
2008-10-09, 00:17:00,VALID,916.954,VALID,0,VALID,100,VALID,-0.0339617,VALID,20.0268,VALID,144,VALID,0.414844
2008-10-09, 00:18:00,VALID,916.942,VALID,0,VALID,100,VALID,-0.0169808,VALID,20.046,VALID,126,VALID,0.954167
2008-10-09, 00:19:00,VALID,916.937,VALID,0,VALID,100,VALID,-0.0169808,VALID,20.1044,VALID,114,VALID,0.817587
2008-10-09, 00:20:00,VALID,916.931,VALID,0,VALID,100,VALID,0.0509425,VALID,20.1358,VALID,134,VALID,1.06942
2008-10-09, 00:21:00,VALID,916.899,VALID,0,VALID,100,VALID,0,VALID,20.1488,VALID,125,VALID,1.58648
2008-10-09, 00:22:00,VALID,916.887,VALID,0,VALID,100,VALID,0.0679233,VALID,20.165,VALID,119,VALID,1.04892
2008-10-09, 00:23:00,VALID,916.872,VALID,0,VALID,100,VALID,0.0339617,VALID,20.1588,VALID,125,VALID,1.2258
2008-10-09, 00:24:00,VALID,916.856,VALID,0,VALID,100,VALID,0.0509425,VALID,20.1463,VALID,142,VALID,1.88172
2008-10-09, 00:25:00,VALID,916.834,VALID,0,VALID,100,VALID,0.0679233,VALID,20.1585,VALID,136,VALID,1.68379
2008-10-09, 00:26:00,VALID,916.839,VALID,0,VALID,100,VALID,0.0509425,VALID,20.1847,VALID,141,VALID,1.43155
2008-10-09, 00:27:00,VALID,916.817,VALID,0,VALID,100,VALID,0.0679233,VALID,20.1488,VALID,141,VALID,1.38244
2008-10-09, 00:28:00,VALID,916.807,VALID,0,VALID,100,VALID,0.101885,VALID,20.1351,VALID,137,VALID,1.30583
2008-10-09, 00:29:00,VALID,916.787,VALID,0,VALID,100,VALID,0.0679233,VALID,20.1296,VALID,142,VALID,0.978237
2008-10-09, 00:30:00,VALID,916.767,VALID,0,VALID,100,VALID,0.101885,VALID,20.1036,VALID,138,VALID,1.20476
2008-10-09, 00:31:00,VALID,916.754,VALID,0,VALID,100,VALID,0.0849042,VALID,20.0969,VALID,137,VALID,1.09412
2008-10-09, 00:32:00,VALID,916.742,VALID,0,VALID,100,VALID,0.0679233,VALID,20.1166,VALID,136,VALID,0.137607
2008-10-09, 00:33:00,VALID,916.737,VALID,0,VALID,100,VALID,0.101885,VALID,20.1393,VALID,141,VALID,0
2008-10-09, 00:34:00,VALID,916.735,VALID,0,VALID,100,VALID,-0.0169808,VALID,20.1431,VALID,162,VALID,0
2008-10-09, 00:35:00,VALID,916.723,VALID,0,VALID,100,VALID,-0.0679233,VALID,20.1211,VALID,156,VALID,0
2008-10-09, 00:36:00,VALID,916.735,VALID,0,VALID,100,VALID,-0.0509425,VALID,20.0887,VALID,159,VALID,0
2008-10-09, 00:37:00,VALID,916.706,VALID,0,VALID,100,VALID,-0.0509425,VALID,20.0497,VALID,161,VALID,0
2008-10-09, 00:38:00,VALID,916.695,VALID,0,VALID,100,VALID,-0.0339617,VALID,20.0432,VALID,167,VALID,0.25109
2008-10-09, 00:39:00,VALID,916.672,VALID,0,VALID,100,VALID,-0.0339617,VALID,20.0365,VALID,150,VALID,0
2008-10-09, 00:40:00,VALID,916.65,VALID,0,VALID,100,VALID,-0.0169808,VALID,19.9946,VALID,135,VALID,0
2008-10-09, 00:41:00,VALID,916.613,VALID,0,VALID,100,VALID,-0.0339617,VALID,19.9973,VALID,129,VALID,0
2008-10-09, 00:42:00,VALID,916.573,VALID,0,VALID,100,VALID,-0.0169808,VALID,20.0135,VALID,132,VALID,0
2008-10-09, 00:43:00,VALID,916.548,VALID,0,VALID,100,VALID,-0.0339617,VALID,20.0041,VALID,129,VALID,0
2008-10-09, 00:44:00,VALID,916.531,VALID,0,VALID,100,VALID,-0.0169808,VALID,20.0011,VALID,124,VALID,0
2008-10-09, 00:45:00,VALID,916.499,VALID,0,VALID,100,VALID,-0.0509425,VALID,19.9684,VALID,124,VALID,0
2008-10-09, 00:46:00,VALID,916.49,VALID,0,VALID,100,VALID,-0.0849042,VALID,19.9754,VALID,146,VALID,1.0242
2008-10-09, 00:47:00,VALID,916.49,VALID,0,VALID,100,VALID,-0.0679233,VALID,19.9686,VALID,144,VALID,0.207217
2008-10-09, 00:48:00,VALID,916.494,VALID,0,VALID,100,VALID,-0.0509425,VALID,19.9494,VALID,142,VALID,1.24516
2008-10-09, 00:49:00,VALID,916.488,VALID,0,VALID,100,VALID,-0.101885,VALID,19.9564,VALID,140,VALID,0.474702
2008-10-09, 00:50:00,VALID,916.49,VALID,0,VALID,100,VALID,-0.152827,VALID,19.9512,VALID,152,VALID,0.0883557
2008-10-09, 00:51:00,VALID,916.477,VALID,0,VALID,100,VALID,-0.169808,VALID,19.9152,VALID,161,VALID,0.134115
2008-10-09, 00:52:00,VALID,916.47,VALID,0,VALID,100,VALID,-0.169808,VALID,19.8955,VALID,161,VALID,0
2008-10-09, 00:53:00,VALID,916.463,VALID,0,VALID,100,VALID,-0.152827,VALID,19.8888,VALID,161,VALID,0.0552083
2008-10-09, 00:54:00,VALID,916.467,VALID,0,VALID,100,VALID,-0.101885,VALID,19.8598,VALID,150,VALID,0.00508721
2008-10-09, 00:55:00,VALID,916.469,VALID,0,VALID,100,VALID,-0.135847,VALID,19.8438,VALID,145,VALID,0
2008-10-09, 00:56:00,VALID,916.487,VALID,0,VALID,100,VALID,-0.169808,VALID,19.8144,VALID,158,VALID,0
2008-10-09, 00:57:00,VALID,916.486,VALID,0,VALID,100,VALID,-0.152827,VALID,19.7824,VALID,149,VALID,0
2008-10-09, 00:58:00,VALID,916.497,VALID,0,VALID,100,VALID,-0.169808,VALID,19.7203,VALID,147,VALID,0
2008-10-09, 00:59:00,VALID,916.501,VALID,0,VALID,100,VALID,-0.135847,VALID,19.7045,VALID,137,VALID,0.0807292
2008-10-09, 01:00:00,VALID,916.505,VALID,0,VALID,100,VALID,-0.152827,VALID,19.7103,VALID,119,VALID,0
2008-10-09, 01:01:00,VALID,916.509,VALID,0,VALID,100,VALID,-0.152827,VALID,19.7235,VALID,130,VALID,0
2008-10-09, 01:02:00,VALID,916.506,VALID,0,VALID,100,VALID,-0.186789,VALID,19.7727,VALID,126,VALID,0
2008-10-09, 01:03:00,VALID,916.485,VALID,0,VALID,100,VALID,-0.118866,VALID,19.7659,VALID,101,VALID,0
2008-10-09, 01:04:00,VALID,916.443,VALID,0,VALID,100,VALID,-0.135847,VALID,19.8131,VALID,101,VALID,0
2008-10-09, 01:05:00,VALID,916.397,VALID,0,VALID,100,VALID,-0.0679233,VALID,19.8421,VALID,101,VALID,0
2008-10-09, 01:06:00,VALID,916.362,VALID,0,VALID,100,VALID,-0.0509425,VALID,19.8351,VALID,101,VALID,0
2008-10-09, 01:07:00,VALID,916.327,VALID,0,VALID,100,VALID,-0.0169808,VALID,19.8286,VALID,101,VALID,0
2008-10-09, 01:08:00,VALID,916.307,VALID,0,VALID,100,VALID,-0.0169808,VALID,19.8353,VALID,101,VALID,0
2008-10-09, 01:09:00,VALID,916.305,VALID,0,VALID,100,VALID,-0.0169808,VALID,19.868,VALID,101,VALID,0
2008-10-09, 01:10:00,VALID,916.298,VALID,0,VALID,100,VALID,-0.0169808,VALID,19.8902,VALID,118,VALID,0
2008-10-09, 01:11:00,VALID,916.283,VALID,0,VALID,100,VALID,0,VALID,19.8483,VALID,126,VALID,0
2008-10-09, 01:12:00,VALID,916.274,VALID,0,VALID,100,VALID,-0.0169808,VALID,19.8448,VALID,127,VALID,0.287388
2008-10-09, 01:13:00,VALID,916.271,VALID,0,VALID,100,VALID,0,VALID,19.8673,VALID,127,VALID,0.577567
2008-10-09, 01:14:00,VALID,916.27,VALID,0,VALID,100,VALID,-0.0169808,VALID,19.8353,VALID,145,VALID,0
2008-10-09, 01:15:00,VALID,916.259,VALID,0,VALID,100,VALID,0,VALID,19.7575,VALID,152,VALID,0
2008-10-09, 01:16:00,VALID,916.241,VALID,0,VALID,100,VALID,-0.0679233,VALID,19.7899,VALID,153,VALID,0
2008-10-09, 01:17:00,VALID,916.241,VALID,0,VALID,100,VALID,-0.0509425,VALID,19.7999,VALID,163,VALID,0
2008-10-09, 01:18:00,VALID,916.242,VALID,0,VALID,100,VALID,-0.0679233,VALID,19.741,VALID,164,VALID,0
2008-10-09, 01:19:00,VALID,916.246,VALID,0,VALID,100,VALID,-0.0169808,VALID,19.6594,VALID,164,VALID,0.131696
2008-10-09, 01:20:00,VALID,916.244,VALID,0,VALID,100,VALID,-0.0509425,VALID,19.5785,VALID,152,VALID,0.130766
2008-10-09, 01:21:00,VALID,916.245,VALID,0,VALID,100,VALID,0,VALID,19.582,VALID,151,VALID,0
2008-10-09, 01:22:00,VALID,916.258,VALID,0,VALID,100,VALID,0,VALID,19.6372,VALID,158,VALID,0
2008-10-09, 01:23:00,VALID,916.268,VALID,0,VALID,100,VALID,-0.0169808,VALID,19.6409,VALID,163,VALID,0
2008-10-09, 01:24:00,VALID,916.288,VALID,0,VALID,100,VALID,-0.0169808,VALID,19.6434,VALID,164,VALID,0
2008-10-09, 01:25:00,VALID,916.288,VALID,0,VALID,100,VALID,0,VALID,19.6661,VALID,172,VALID,0
2008-10-09, 01:26:00,VALID,916.299,VALID,0,VALID,100,VALID,-0.0339617,VALID,19.6636,VALID,171,VALID,0
2008-10-09, 01:27:00,VALID,916.302,VALID,0,VALID,100,VALID,-0.0339617,VALID,19.6304,VALID,167,VALID,0
2008-10-09, 01:28:00,VALID,916.319,VALID,0,VALID,100,VALID,-0.0169808,VALID,19.6337,VALID,145,VALID,0
2008-10-09, 01:29:00,VALID,916.309,VALID,0,VALID,100,VALID,-0.0169808,VALID,19.6659,VALID,145,VALID,0
2008-10-09, 01:30:00,VALID,916.306,VALID,0,VALID,100,VALID,-0.0509425,VALID,19.7118,VALID,148,VALID,0
2008-10-09, 01:31:00,VALID,916.3,VALID,0,VALID,100,VALID,-0.0339617,VALID,19.7669,VALID,149,VALID,0
2008-10-09, 01:32:00,VALID,916.278,VALID,0,VALID,100,VALID,-0.0169808,VALID,19.8096,VALID,149,VALID,0
2008-10-09, 01:33:00,VALID,916.285,VALID,0,VALID,100,VALID,-0.0339617,VALID,19.8323,VALID,149,VALID,0
2008-10-09, 01:34:00,VALID,916.272,VALID,0,VALID,100,VALID,-0.0339617,VALID,19.8191,VALID,149,VALID,0
2008-10-09, 01:35:00,VALID,916.274,VALID,0,VALID,100,VALID,-0.0509425,VALID,19.7804,VALID,149,VALID,0
2008-10-09, 01:36:00,VALID,916.273,VALID,0,VALID,100,VALID,-0.0679233,VALID,19.7218,VALID,149,VALID,0
2008-10-09, 01:37:00,VALID,916.294,VALID,0,VALID,100,VALID,-0.0339617,VALID,19.6441,VALID,149,VALID,0
2008-10-09, 01:38:00,VALID,916.284,VALID,0,VALID,100,VALID,-0.0679233,VALID,19.4358,VALID,149,VALID,0
2008-10-09, 01:39:00,VALID,916.269,VALID,0,VALID,100,VALID,-0.0169808,VALID,19.3749,VALID,152,VALID,0
2008-10-09, 01:40:00,VALID,916.261,VALID,0,VALID,100,VALID,-0.0169808,VALID,19.4003,VALID,155,VALID,0
2008-10-09, 01:41:00,VALID,916.233,VALID,0,VALID,100,VALID,-0.0169808,VALID,19.455,VALID,164,VALID,0.154797
2008-10-09, 01:42:00,VALID,916.23,VALID,0,VALID,100,VALID,-0.0169808,VALID,19.4882,VALID,157,VALID,0.0345703
2008-10-09, 01:43:00,VALID,916.213,VALID,0,VALID,100,VALID,-0.0169808,VALID,19.5074,VALID,157,VALID,0
2008-10-09, 01:44:00,VALID,916.198,VALID,0,VALID,100,VALID,-0.0339617,VALID,19.5231,VALID,152,VALID,0
2008-10-09, 01:45:00,VALID,916.192,VALID,0,VALID,100,VALID,0,VALID,19.5303,VALID,144,VALID,0
2008-10-09, 01:46:00,VALID,916.188,VALID,0,VALID,100,VALID,-0.0339617,VALID,19.5234,VALID,157,VALID,0
2008-10-09, 01:47:00,VALID,916.182,VALID,0,VALID,100,VALID,-0.0169808,VALID,19.5076,VALID,159,VALID,0
2008-10-09, 01:48:00,VALID,916.168,VALID,0,VALID,100,VALID,-0.0169808,VALID,19.4842,VALID,162,VALID,0
2008-10-09, 01:49:00,VALID,916.154,VALID,0,VALID,100,VALID,-0.0339617,VALID,19.449,VALID,157,VALID,0
2008-10-09, 01:50:00,VALID,916.125,VALID,0,VALID,100,VALID,-0.0339617,VALID,19.426,VALID,154,VALID,0.0530523
2008-10-09, 01:51:00,VALID,916.125,VALID,0,VALID,100,VALID,0,VALID,19.4101,VALID,156,VALID,0
2008-10-09, 01:52:00,VALID,916.112,VALID,0,VALID,100,VALID,0,VALID,19.4293,VALID,156,VALID,0
2008-10-09, 01:53:00,VALID,916.104,VALID,0,VALID,100,VALID,0,VALID,19.4156,VALID,150,VALID,0
2008-10-09, 01:54:00,VALID,916.095,VALID,0,VALID,100,VALID,-0.0679233,VALID,19.4328,VALID,152,VALID,0.10973
2008-10-09, 01:55:00,VALID,916.093,VALID,0,VALID,100,VALID,-0.0169808,VALID,19.4879,VALID,157,VALID,0.00241815
2008-10-09, 01:56:00,VALID,916.083,VALID,0,VALID,100,VALID,-0.0169808,VALID,19.5046,VALID,156,VALID,0.126635
2008-10-09, 01:57:00,VALID,916.074,VALID,0,VALID,100,VALID,-0.0339617,VALID,19.4712,VALID,163,VALID,0.154119
2008-10-09, 01:58:00,VALID,916.079,VALID,0,VALID,100,VALID,0,VALID,19.4912,VALID,162,VALID,0.138808
2008-10-09, 01:59:00,VALID,916.063,VALID,0,VALID,100,VALID,-0.0509425,VALID,19.4817,VALID,139,VALID,0.40625
2008-10-09, 02:00:00,VALID,916.054,VALID,0,VALID,100,VALID,-0.0509425,VALID,19.4365,VALID,135,VALID,0.0052689
2008-10-09, 02:01:00,VALID,916.061,VALID,0,VALID,100,VALID,0,VALID,19.3484,VALID,167,VALID,0.000887784
2008-10-09, 02:02:00,VALID,916.045,VALID,0,VALID,100,VALID,0,VALID,19.2863,VALID,170,VALID,0
2008-10-09, 02:03:00,VALID,916.058,VALID,0,VALID,100,VALID,0,VALID,19.2673,VALID,162,VALID,0
2008-10-09, 02:04:00,VALID,916.042,VALID,0,VALID,100,VALID,0.0339617,VALID,19.2506,VALID,161,VALID,0
2008-10-09, 02:05:00,VALID,916.049,VALID,0,VALID,100,VALID,0,VALID,19.2341,VALID,161,VALID,0
2008-10-09, 02:06:00,VALID,916.032,VALID,0,VALID,100,VALID,-0.0169808,VALID,19.2087,VALID,149,VALID,0
2008-10-09, 02:07:00,VALID,916.012,VALID,0,VALID,100,VALID,0,VALID,19.205,VALID,144,VALID,0
2008-10-09, 02:08:00,VALID,916,VALID,0,VALID,100,VALID,-0.0169808,VALID,19.2451,VALID,149,VALID,0
2008-10-09, 02:09:00,VALID,915.992,VALID,0,VALID,100,VALID,-0.0169808,VALID,19.2641,VALID,157,VALID,0.0168968
2008-10-09, 02:10:00,VALID,915.992,VALID,0,VALID,100,VALID,0,VALID,19.3095,VALID,154,VALID,0
2008-10-09, 02:11:00,VALID,916,VALID,0,VALID,100,VALID,0,VALID,19.3322,VALID,148,VALID,0
2008-10-09, 02:12:00,VALID,916.007,VALID,0,VALID,100,VALID,0.0169808,VALID,19.3354,VALID,153,VALID,0
2008-10-09, 02:13:00,VALID,916.007,VALID,0,VALID,100,VALID,0.0169808,VALID,19.3192,VALID,118,VALID,0.0687881
2008-10-09, 02:14:00,VALID,916.007,VALID,0,VALID,100,VALID,0.0169808,VALID,19.2341,VALID,63,VALID,0
2008-10-09, 02:15:00,VALID,915.991,VALID,0,VALID,100,VALID,-0.0169808,VALID,19.163,VALID,59,VALID,0
2008-10-09, 02:16:00,VALID,915.981,VALID,0,VALID,100,VALID,0,VALID,19.1303,VALID,56,VALID,0
2008-10-09, 02:17:00,VALID,915.976,VALID,0,VALID,100,VALID,0.0169808,VALID,19.1046,VALID,37,VALID,0
2008-10-09, 02:18:00,VALID,915.966,VALID,0,VALID,100,VALID,-0.0169808,VALID,19.0882,VALID,334,VALID,0
2008-10-09, 02:19:00,VALID,915.96,VALID,0,VALID,100,VALID,0,VALID,19.0954,VALID,315,VALID,0
2008-10-09, 02:20:00,VALID,915.96,VALID,0,VALID,100,VALID,-0.0169808,VALID,19.0562,VALID,315,VALID,0
2008-10-09, 02:21:00,VALID,915.951,VALID,0,VALID,100,VALID,0,VALID,19.037,VALID,315,VALID,0
2008-10-09, 02:22:00,VALID,915.937,VALID,0,VALID,100,VALID,0.0169808,VALID,18.9909,VALID,315,VALID,0
2008-10-09, 02:23:00,VALID,915.933,VALID,0,VALID,100,VALID,0,VALID,18.9587,VALID,315,VALID,0
2008-10-09, 02:24:00,VALID,915.927,VALID,0,VALID,100,VALID,-0.0169808,VALID,18.9689,VALID,315,VALID,0
2008-10-09, 02:25:00,VALID,915.922,VALID,0,VALID,100,VALID,0,VALID,18.9814,VALID,36,VALID,0
2008-10-09, 02:26:00,VALID,915.92,VALID,0,VALID,100,VALID,0.0339617,VALID,18.9973,VALID,61,VALID,0
2008-10-09, 02:27:00,VALID,915.917,VALID,0,VALID,100,VALID,0,VALID,18.9779,VALID,61,VALID,0
2008-10-09, 02:28:00,VALID,915.908,VALID,0,VALID,100,VALID,0,VALID,18.9976,VALID,61,VALID,0
2008-10-09, 02:29:00,VALID,915.899,VALID,0,VALID,100,VALID,0,VALID,18.9068,VALID,61,VALID,0
2008-10-09, 02:30:00,VALID,915.888,VALID,0,VALID,100,VALID,0,VALID,18.8648,VALID,61,VALID,0
2008-10-09, 02:31:00,VALID,915.88,VALID,0,VALID,100,VALID,0,VALID,18.8519,VALID,55,VALID,0
2008-10-09, 02:32:00,VALID,915.887,VALID,0,VALID,100,VALID,0,VALID,18.8716,VALID,37,VALID,0
2008-10-09, 02:33:00,VALID,915.883,VALID,0,VALID,100,VALID,0,VALID,18.8936,VALID,37,VALID,0
2008-10-09, 02:34:00,VALID,915.89,VALID,0,VALID,100,VALID,0,VALID,18.91,VALID,37,VALID,0
2008-10-09, 02:35:00,VALID,915.886,VALID,0,VALID,100,VALID,0,VALID,18.9,VALID,37,VALID,0
2008-10-09, 02:36:00,VALID,915.88,VALID,0,VALID,100,VALID,0,VALID,18.8936,VALID,37,VALID,0
2008-10-09, 02:37:00,VALID,915.881,VALID,0,VALID,100,VALID,0,VALID,18.907,VALID,37,VALID,0
2008-10-09, 02:38:00,VALID,915.893,VALID,0,VALID,100,VALID,0,VALID,18.8586,VALID,44,VALID,0
2008-10-09, 02:39:00,VALID,915.888,VALID,0,VALID,100,VALID,0,VALID,18.8252,VALID,54,VALID,0
2008-10-09, 02:40:00,VALID,915.883,VALID,0,VALID,100,VALID,0,VALID,18.8553,VALID,54,VALID,0
2008-10-09, 02:41:00,VALID,915.896,VALID,0,VALID,100,VALID,0.0339617,VALID,18.8447,VALID,54,VALID,0
2008-10-09, 02:42:00,VALID,915.906,VALID,0,VALID,100,VALID,0.0339617,VALID,18.8125,VALID,54,VALID,0
2008-10-09, 02:43:00,VALID,915.94,VALID,0,VALID,100,VALID,0,VALID,18.7865,VALID,54,VALID,0
2008-10-09, 02:44:00,VALID,915.973,VALID,0,VALID,100,VALID,0,VALID,18.6987,VALID,54,VALID,0
2008-10-09, 02:45:00,VALID,915.996,VALID,0,VALID,100,VALID,-0.0339617,VALID,18.6278,VALID,54,VALID,0
2008-10-09, 02:46:00,VALID,916.018,VALID,0,VALID,100,VALID,0.0169808,VALID,18.5857,VALID,54,VALID,0
2008-10-09, 02:47:00,VALID,916.033,VALID,0,VALID,100,VALID,-0.0339617,VALID,18.5854,VALID,54,VALID,0
2008-10-09, 02:48:00,VALID,916.036,VALID,0,VALID,100,VALID,0,VALID,18.6376,VALID,14,VALID,0
2008-10-09, 02:49:00,VALID,916.047,VALID,0,VALID,100,VALID,0.0169808,VALID,18.7087,VALID,328,VALID,0
2008-10-09, 02:50:00,VALID,916.057,VALID,0,VALID,100,VALID,0,VALID,18.7668,VALID,296,VALID,0
2008-10-09, 02:51:00,VALID,916.06,VALID,0,VALID,100,VALID,0.0169808,VALID,18.8317,VALID,298,VALID,0
2008-10-09, 02:52:00,VALID,916.066,VALID,0,VALID,100,VALID,0,VALID,18.8803,VALID,298,VALID,0
2008-10-09, 02:53:00,VALID,916.046,VALID,0,VALID,100,VALID,-0.0339617,VALID,18.9202,VALID,298,VALID,0
2008-10-09, 02:54:00,VALID,916.052,VALID,0,VALID,100,VALID,0,VALID,18.9399,VALID,298,VALID,0
2008-10-09, 02:55:00,VALID,916.045,VALID,0,VALID,100,VALID,0,VALID,18.9225,VALID,298,VALID,0
2008-10-09, 02:56:00,VALID,916.053,VALID,0,VALID,100,VALID,-0.0339617,VALID,18.923,VALID,298,VALID,0
2008-10-09, 02:57:00,VALID,916.053,VALID,0,VALID,100,VALID,0.0169808,VALID,18.9232,VALID,305,VALID,0
2008-10-09, 02:58:00,VALID,916.052,VALID,0,VALID,100,VALID,0,VALID,18.8674,VALID,31,VALID,0.0706759
2008-10-09, 02:59:00,VALID,916.044,VALID,0,VALID,100,VALID,-0.0169808,VALID,18.8683,VALID,56,VALID,0
2008-10-09, 03:00:00,VALID,916.028,VALID,0,VALID,100,VALID,0,VALID,18.8648,VALID,56,VALID,0.0692472
2008-10-09, 03:01:00,VALID,916.012,VALID,0,VALID,100,VALID,0,VALID,18.8584,VALID,57,VALID,0
2008-10-09, 03:02:00,VALID,915.993,VALID,0,VALID,100,VALID,-0.0339617,VALID,18.8421,VALID,61,VALID,0
2008-10-09, 03:03:00,VALID,915.955,VALID,0,VALID,100,VALID,0,VALID,18.8294,VALID,61,VALID,0
2008-10-09, 03:04:00,VALID,915.94,VALID,0,VALID,100,VALID,-0.0339617,VALID,18.8389,VALID,61,VALID,0
2008-10-09, 03:05:00,VALID,915.923,VALID,0,VALID,100,VALID,-0.0679233,VALID,18.8299,VALID,60,VALID,0
2008-10-09, 03:06:00,VALID,915.914,VALID,0,VALID,100,VALID,-0.0679233,VALID,18.794,VALID,50,VALID,0
2008-10-09, 03:07:00,VALID,915.908,VALID,0,VALID,100,VALID,-0.0679233,VALID,18.7877,VALID,50,VALID,0
2008-10-09, 03:08:00,VALID,915.897,VALID,0,VALID,100,VALID,-0.0509425,VALID,18.8201,VALID,50,VALID,0
2008-10-09, 03:09:00,VALID,915.889,VALID,0,VALID,100,VALID,-0.0339617,VALID,18.8361,VALID,50,VALID,0
2008-10-09, 03:10:00,VALID,915.887,VALID,0,VALID,100,VALID,-0.0849042,VALID,18.869,VALID,50,VALID,0
2008-10-09, 03:11:00,VALID,915.879,VALID,0,VALID,100,VALID,-0.0679233,VALID,18.8653,VALID,50,VALID,0
2008-10-09, 03:12:00,VALID,915.876,VALID,0,VALID,100,VALID,-0.101885,VALID,18.8493,VALID,50,VALID,0
2008-10-09, 03:13:00,VALID,915.865,VALID,0,VALID,100,VALID,-0.0169808,VALID,18.8162,VALID,50,VALID,0
2008-10-09, 03:14:00,VALID,915.857,VALID,0,VALID,100,VALID,-0.0679233,VALID,18.8396,VALID,50,VALID,0
2008-10-09, 03:15:00,VALID,915.855,VALID,0,VALID,100,VALID,-0.0509425,VALID,18.8201,VALID,50,VALID,0.067294
2008-10-09, 03:16:00,VALID,915.856,VALID,0,VALID,100,VALID,-0.0679233,VALID,18.8169,VALID,63,VALID,0
2008-10-09, 03:17:00,VALID,915.836,VALID,0,VALID,100,VALID,-0.0679233,VALID,18.8588,VALID,83,VALID,0
2008-10-09, 03:18:00,VALID,915.812,VALID,0,VALID,100,VALID,-0.0339617,VALID,18.8978,VALID,85,VALID,0
2008-10-09, 03:19:00,VALID,915.801,VALID,0,VALID,100,VALID,-0.0339617,VALID,18.9332,VALID,88,VALID,0
2008-10-09, 03:20:00,VALID,915.781,VALID,0,VALID,100,VALID,-0.0679233,VALID,18.926,VALID,88,VALID,0
2008-10-09, 03:21:00,VALID,915.753,VALID,0,VALID,100,VALID,-0.0339617,VALID,18.9459,VALID,108,VALID,0
2008-10-09, 03:22:00,VALID,915.749,VALID,0,VALID,100,VALID,-0.0509425,VALID,18.9594,VALID,126,VALID,0
2008-10-09, 03:23:00,VALID,915.749,VALID,0,VALID,100,VALID,0,VALID,18.933,VALID,134,VALID,0
2008-10-09, 03:24:00,VALID,915.75,VALID,0,VALID,100,VALID,-0.0509425,VALID,18.9077,VALID,141,VALID,0
2008-10-09, 03:25:00,VALID,915.727,VALID,0,VALID,100,VALID,-0.0509425,VALID,18.8908,VALID,141,VALID,0
2008-10-09, 03:26:00,VALID,915.718,VALID,0,VALID,100,VALID,-0.0339617,VALID,18.894,VALID,141,VALID,0
2008-10-09, 03:27:00,VALID,915.715,VALID,0,VALID,100,VALID,-0.0169808,VALID,18.8945,VALID,141,VALID,0
2008-10-09, 03:28:00,VALID,915.718,VALID,0,VALID,100,VALID,-0.0339617,VALID,18.894,VALID,141,VALID,0
2008-10-09, 03:29:00,VALID,915.724,VALID,0,VALID,100,VALID,-0.0169808,VALID,18.8943,VALID,141,VALID,0
2008-10-09, 03:30:00,VALID,915.735,VALID,0,VALID,100,VALID,-0.0339617,VALID,18.9012,VALID,141,VALID,0
2008-10-09, 03:31:00,VALID,915.74,VALID,0,VALID,100,VALID,-0.0339617,VALID,18.9005,VALID,141,VALID,0
2008-10-09, 03:32:00,VALID,915.743,VALID,0,VALID,100,VALID,-0.0339617,VALID,18.8975,VALID,141,VALID,0
2008-10-09, 03:33:00,VALID,915.747,VALID,0,VALID,100,VALID,-0.0169808,VALID,18.9102,VALID,141,VALID,0
2008-10-09, 03:34:00,VALID,915.743,VALID,0,VALID,100,VALID,-0.0169808,VALID,18.9135,VALID,141,VALID,0
2008-10-09, 03:35:00,VALID,915.744,VALID,0,VALID,100,VALID,-0.0509425,VALID,18.9175,VALID,141,VALID,0
2008-10-09, 03:36:00,VALID,915.745,VALID,0,VALID,100,VALID,-0.0169808,VALID,18.917,VALID,141,VALID,0
2008-10-09, 03:37:00,VALID,915.741,VALID,0,VALID,100,VALID,-0.0509425,VALID,18.9337,VALID,141,VALID,0
2008-10-09, 03:38:00,VALID,915.751,VALID,0,VALID,100,VALID,-0.0169808,VALID,18.9332,VALID,141,VALID,0
2008-10-09, 03:39:00,VALID,915.745,VALID,0,VALID,100,VALID,-0.0169808,VALID,18.9464,VALID,141,VALID,0
2008-10-09, 03:40:00,VALID,915.745,VALID,0,VALID,100,VALID,-0.0509425,VALID,18.9394,VALID,141,VALID,0
2008-10-09, 03:41:00,VALID,915.751,VALID,0,VALID,100,VALID,-0.0339617,VALID,18.9232,VALID,141,VALID,0
2008-10-09, 03:42:00,VALID,915.752,VALID,0,VALID,100,VALID,0,VALID,18.914,VALID,141,VALID,0
2008-10-09, 03:43:00,VALID,915.761,VALID,0,VALID,100,VALID,-0.0509425,VALID,18.9075,VALID,141,VALID,0
2008-10-09, 03:44:00,VALID,915.762,VALID,0,VALID,100,VALID,0,VALID,18.9045,VALID,141,VALID,0
2008-10-09, 03:45:00,VALID,915.768,VALID,0,VALID,100,VALID,-0.0509425,VALID,18.9172,VALID,141,VALID,0
2008-10-09, 03:46:00,VALID,915.785,VALID,0,VALID,100,VALID,-0.0679233,VALID,18.9497,VALID,141,VALID,0
2008-10-09, 03:47:00,VALID,915.788,VALID,0,VALID,100,VALID,-0.0169808,VALID,18.9367,VALID,141,VALID,0
2008-10-09, 03:48:00,VALID,915.789,VALID,0,VALID,100,VALID,0,VALID,18.9624,VALID,138,VALID,0
2008-10-09, 03:49:00,VALID,915.772,VALID,0,VALID,100,VALID,-0.0169808,VALID,18.9652,VALID,137,VALID,0
2008-10-09, 03:50:00,VALID,915.741,VALID,0,VALID,100,VALID,-0.0679233,VALID,18.9721,VALID,137,VALID,0
2008-10-09, 03:51:00,VALID,915.716,VALID,0,VALID,100,VALID,0,VALID,18.9654,VALID,137,VALID,0
2008-10-09, 03:52:00,VALID,915.675,VALID,0,VALID,100,VALID,-0.0169808,VALID,18.9621,VALID,137,VALID,0